Time,TemperatureF,DewpointF,PressureIn,WindDirection,WindDirectionDegrees,WindSpeedMPH,WindSpeedGustMPH,Humidity,HourlyPrecipIn,Conditions,Clouds,dailyrainin,SolarRadiationWatts/m^2,SoftwareType,DateUTC
2013-06-29 00:01:00,77.8,75.3,29.86,SW,223,4.0,6.0,92,0.00,,CLR,0.34,0.00,VWS V14.01,2013-06-29 04:01:00,
2013-06-29 00:06:00,77.8,75.3,29.86,South,184,2.0,4.0,92,0.00,,CLR,0.00,0.00,VWS V14.01,2013-06-29 04:06:00,
2013-06-29 00:11:00,77.8,75.3,29.86,SSW,198,4.0,5.0,92,0.00,,CLR,0.00,0.00,VWS V14.01,2013-06-29 04:11:00,
2013-06-29 00:16:00,77.8,75.3,29.85,SSW,192,2.0,5.0,92,0.00,,CLR,0.00,0.00,VWS V14.01,2013-06-29 04:16:00,
2013-06-29 00:21:00,77.7,75.2,29.85,SSW,194,4.0,5.0,92,0.00,,CLR,0.00,0.00,VWS V14.01,2013-06-29 04:21:00,
2013-06-29 00:26:00,77.7,75.2,29.85,South,181,3.0,6.0,92,0.00,,CLR,0.00,0.00,VWS V14.01,2013-06-29 04:26:00,
2013-06-29 00:31:00,77.7,75.2,29.85,SSE,147,5.0,5.0,92,0.00,,CLR,0.00,0.00,VWS V14.01,2013-06-29 04:31:00,
2013-06-29 00:36:00,77.6,75.1,29.85,South,175,2.0,6.0,92,0.00,,CLR,0.00,0.00,VWS V14.01,2013-06-29 04:36:00,
2013-06-29 00:41:00,77.6,75.1,29.85,South,190,2.0,6.0,92,0.00,,CLR,0.00,0.00,VWS V14.01,2013-06-29 04:41:00,
2013-06-29 00:47:00,77.6,75.1,29.84,South,178,3.0,7.0,92,0.00,,CLR,0.00,0.00,VWS V14.01,2013-06-29 04:47:00,
2013-06-29 00:52:00,77.6,75.1,29.84,SSW,194,3.0,7.0,92,0.00,,CLR,0.00,0.00,VWS V14.01,2013-06-29 04:52:00,
2013-06-29 00:57:00,77.5,75.0,29.84,South,170,3.0,7.0,92,0.00,,CLR,0.00,0.00,VWS V14.01,2013-06-29 04:57:00,
2013-06-29 01:02:00,77.4,74.9,29.84,South,184,3.0,5.0,92,0.00,,CLR,0.00,0.00,VWS V14.01,2013-06-29 05:02:00,
2013-06-29 01:07:00,77.3,74.8,29.83,South,169,4.0,5.0,92,0.00,,CLR,0.00,0.00,VWS V14.01,2013-06-29 05:07:00,
2013-06-29 01:12:00,77.3,75.1,29.83,South,177,4.0,5.0,93,0.00,,CLR,0.00,0.00,VWS V14.01,2013-06-29 05:12:00,
2013-06-29 01:17:00,77.2,75.0,29.83,South,169,3.0,6.0,93,0.00,,CLR,0.00,0.00,VWS V14.01,2013-06-29 05:17:00,
2013-06-29 01:22:00,77.2,75.0,29.83,South,184,5.0,6.0,93,0.00,,CLR,0.00,0.00,VWS V14.01,2013-06-29 05:22:00,
2013-06-29 01:27:00,77.2,75.0,29.83,SSW,198,4.0,7.0,93,0.00,,CLR,0.00,0.00,VWS V14.01,2013-06-29 05:27:00,
2013-06-29 01:32:00,77.2,75.0,29.83,SSE,162,6.0,8.0,93,0.00,,CLR,0.00,0.00,VWS V14.01,2013-06-29 05:32:00,
2013-06-29 01:37:00,77.2,75.0,29.83,SSE,158,6.0,8.0,93,0.00,,CLR,0.00,0.00,VWS V14.01,2013-06-29 05:37:00,
2013-06-29 01:42:00,77.2,75.0,29.82,SSE,160,7.0,10.0,93,0.00,,CLR,0.00,0.00,VWS V14.01,2013-06-29 05:42:00,
2013-06-29 01:47:00,77.1,74.9,29.82,South,173,7.0,11.0,93,0.00,,CLR,0.00,0.00,VWS V14.01,2013-06-29 05:47:00,
2013-06-29 01:52:00,77.1,74.9,29.82,South,178,5.0,11.0,93,0.00,,CLR,0.00,0.00,VWS V14.01,2013-06-29 05:52:00,
2013-06-29 01:57:00,77.1,74.9,29.81,SSW,194,7.0,11.0,93,0.00,,CLR,0.00,0.00,VWS V14.01,2013-06-29 05:57:00,
2013-06-29 02:02:00,77.0,74.8,29.81,South,176,3.0,4.0,93,0.00,,CLR,0.00,0.00,VWS V14.01,2013-06-29 06:02:00,
2013-06-29 02:07:00,77.0,74.8,29.81,South,175,7.0,7.0,93,0.00,,CLR,0.00,0.00,VWS V14.01,2013-06-29 06:07:00,
2013-06-29 02:12:00,76.9,74.7,29.82,SW,224,8.0,8.0,93,0.00,,CLR,0.00,0.00,VWS V14.01,2013-06-29 06:12:00,
2013-06-29 02:17:00,76.9,74.7,29.82,South,180,6.0,8.0,93,0.00,,CLR,0.00,0.00,VWS V14.01,2013-06-29 06:17:00,
2013-06-29 02:22:00,76.9,74.7,29.81,South,180,6.0,8.0,93,0.00,,CLR,0.00,0.00,VWS V14.01,2013-06-29 06:22:00,
2013-06-29 02:27:00,76.9,75.1,29.81,SSW,202,2.0,9.0,94,0.00,,CLR,0.00,0.00,VWS V14.01,2013-06-29 06:27:00,
2013-06-29 02:32:00,76.9,74.7,29.82,SSW,207,3.0,6.0,93,0.00,,CLR,0.00,0.00,VWS V14.01,2013-06-29 06:32:00,
2013-06-29 02:37:00,76.9,74.7,29.81,South,187,2.0,8.0,93,0.00,,CLR,0.00,0.00,VWS V14.01,2013-06-29 06:37:00,
2013-06-29 02:42:00,77.0,75.1,29.82,South,171,5.0,9.0,94,0.00,,CLR,0.00,0.00,VWS V14.01,2013-06-29 06:42:00,
2013-06-29 02:47:00,77.0,74.8,29.82,SSW,196,5.0,9.0,93,0.00,,CLR,0.00,0.00,VWS V14.01,2013-06-29 06:47:00,
2013-06-29 02:52:00,77.1,74.9,29.82,SSW,192,6.0,9.0,93,0.00,,CLR,0.00,0.00,VWS V14.01,2013-06-29 06:52:00,
2013-06-29 02:57:00,77.1,74.9,29.82,SSE,161,2.0,9.0,93,0.00,,CLR,0.00,0.00,VWS V14.01,2013-06-29 06:57:00,
2013-06-29 03:02:00,77.1,74.9,29.82,South,185,2.0,7.0,93,0.00,,CLR,0.00,0.00,VWS V14.01,2013-06-29 07:02:00,
2013-06-29 03:08:00,77.0,74.8,29.82,South,182,5.0,8.0,93,0.00,,CLR,0.00,0.00,VWS V14.01,2013-06-29 07:08:00,
2013-06-29 03:13:00,77.0,74.8,29.82,SSW,205,3.0,11.0,93,0.00,,CLR,0.00,0.00,VWS V14.01,2013-06-29 07:13:00,
2013-06-29 03:18:00,77.0,74.8,29.82,SSW,213,4.0,11.0,93,0.00,,CLR,0.00,0.00,VWS V14.01,2013-06-29 07:18:00,
2013-06-29 03:23:00,76.9,74.7,29.82,SSW,211,3.0,11.0,93,0.00,,CLR,0.00,0.00,VWS V14.01,2013-06-29 07:23:00,
2013-06-29 03:28:00,76.9,74.7,29.82,SSW,209,4.0,11.0,93,0.00,,CLR,0.00,0.00,VWS V14.01,2013-06-29 07:28:00,
2013-06-29 03:33:00,76.8,74.6,29.82,SSW,211,2.0,6.0,93,0.00,,CLR,0.00,0.00,VWS V14.01,2013-06-29 07:33:00,
2013-06-29 03:38:00,76.8,74.6,29.82,SSW,196,4.0,7.0,93,0.00,,CLR,0.00,0.00,VWS V14.01,2013-06-29 07:38:00,
2013-06-29 03:43:00,76.7,74.8,29.82,South,180,2.0,7.0,94,0.00,,CLR,0.00,0.00,VWS V14.01,2013-06-29 07:43:00,
2013-06-29 03:48:00,76.7,74.8,29.83,South,186,1.0,7.0,94,0.00,,CLR,0.00,0.00,VWS V14.01,2013-06-29 07:48:00,
2013-06-29 03:53:00,76.6,74.8,29.83,SSW,200,4.0,7.0,94,0.00,,CLR,0.00,0.00,VWS V14.01,2013-06-29 07:53:00,
2013-06-29 03:58:00,76.6,74.8,29.83,SSW,208,4.0,7.0,94,0.00,,FEW031,0.00,0.00,VWS V14.01,2013-06-29 07:58:00,
2013-06-29 04:03:00,76.6,74.8,29.83,SSE,161,3.0,7.0,94,0.00,,FEW031,0.00,0.00,VWS V14.01,2013-06-29 08:03:00,
2013-06-29 04:08:00,76.6,74.8,29.83,SSW,195,3.0,7.0,94,0.00,,FEW031,0.00,0.00,VWS V14.01,2013-06-29 08:08:00,
2013-06-29 04:13:00,76.6,74.8,29.83,SSW,192,4.0,7.0,94,0.00,,FEW031,0.00,0.00,VWS V14.01,2013-06-29 08:13:00,
2013-06-29 04:18:00,76.6,74.8,29.83,South,171,2.0,7.0,94,0.00,,FEW027,0.00,0.00,VWS V14.01,2013-06-29 08:18:00,
2013-06-29 04:23:00,76.5,74.7,29.82,SSW,194,3.0,7.0,94,0.00,,FEW027,0.00,0.00,VWS V14.01,2013-06-29 08:23:00,
2013-06-29 04:28:00,76.5,74.7,29.83,SSW,194,4.0,7.0,94,0.00,,FEW027,0.00,0.00,VWS V14.01,2013-06-29 08:28:00,
2013-06-29 04:33:00,76.5,74.7,29.83,South,170,3.0,8.0,94,0.00,,FEW027,0.00,0.00,VWS V14.01,2013-06-29 08:33:00,
2013-06-29 04:38:00,76.5,74.7,29.83,SSW,194,5.0,8.0,94,0.00,,CLR,0.00,0.00,VWS V14.01,2013-06-29 08:38:00,
2013-06-29 04:43:00,76.5,75.0,29.83,South,191,3.0,9.0,95,0.00,,CLR,0.00,0.00,VWS V14.01,2013-06-29 08:43:00,
2013-06-29 04:48:00,76.4,74.9,29.83,South,178,6.0,9.0,95,0.00,,CLR,0.00,0.00,VWS V14.01,2013-06-29 08:48:00,
2013-06-29 04:53:00,76.4,74.9,29.83,South,180,5.0,9.0,95,0.00,,CLR,0.00,0.00,VWS V14.01,2013-06-29 08:53:00,
2013-06-29 04:58:00,76.4,74.9,29.83,South,186,5.0,9.0,95,0.00,,CLR,0.00,0.00,VWS V14.01,2013-06-29 08:58:00,
2013-06-29 05:03:00,76.3,74.8,29.83,South,186,4.0,7.0,95,0.00,,CLR,0.00,0.00,VWS V14.01,2013-06-29 09:03:00,
2013-06-29 05:08:00,76.3,74.4,29.83,South,185,0.0,7.0,94,0.00,,CLR,0.00,0.00,VWS V14.01,2013-06-29 09:08:00,
2013-06-29 05:13:00,76.2,74.7,29.83,South,186,5.0,8.0,95,0.00,,CLR,0.00,0.00,VWS V14.01,2013-06-29 09:13:00,
2013-06-29 05:18:00,76.2,74.7,29.82,South,190,7.0,8.0,95,0.00,,FEW023,0.00,0.00,VWS V14.01,2013-06-29 09:18:00,
2013-06-29 05:23:00,76.2,74.7,29.83,South,179,2.0,10.0,95,0.00,,FEW023,0.00,0.00,VWS V14.01,2013-06-29 09:23:00,
2013-06-29 05:28:00,76.1,74.6,29.83,SSW,210,5.0,10.0,95,0.00,,FEW023,0.00,0.00,VWS V14.01,2013-06-29 09:28:00,
2013-06-29 05:33:00,76.1,74.6,29.83,SSW,207,5.0,6.0,95,0.00,,FEW023,0.00,0.00,VWS V14.01,2013-06-29 09:33:00,
2013-06-29 05:38:00,76.1,74.6,29.83,SW,217,2.0,6.0,95,0.00,,CLR,0.00,0.00,VWS V14.01,2013-06-29 09:38:00,
2013-06-29 05:43:00,76.1,74.6,29.83,SSW,193,7.0,7.0,95,0.00,,CLR,0.00,0.00,VWS V14.01,2013-06-29 09:43:00,
2013-06-29 05:48:00,76.1,74.6,29.83,SSW,213,6.0,7.0,95,0.00,,CLR,0.00,0.00,VWS V14.01,2013-06-29 09:48:00,
2013-06-29 05:53:00,76.1,74.6,29.83,SSW,203,5.0,7.0,95,0.00,,CLR,0.00,0.00,VWS V14.01,2013-06-29 09:53:00,
2013-06-29 05:58:00,76.2,74.7,29.83,SSW,210,5.0,7.0,95,0.00,,CLR,0.00,0.00,VWS V14.01,2013-06-29 09:58:00,
2013-06-29 06:03:00,76.2,74.7,29.83,SSW,213,1.0,5.0,95,0.00,,CLR,0.00,0.00,VWS V14.01,2013-06-29 10:03:00,
2013-06-29 06:08:00,76.1,74.6,29.83,South,186,2.0,5.0,95,0.00,,CLR,0.00,0.00,VWS V14.01,2013-06-29 10:08:00,
2013-06-29 06:13:00,76.0,74.5,29.83,WSW,251,1.0,5.0,95,0.00,,CLR,0.00,0.00,VWS V14.01,2013-06-29 10:13:00,
2013-06-29 06:18:00,75.9,74.4,29.83,SW,221,2.0,5.0,95,0.00,,CLR,0.00,0.00,VWS V14.01,2013-06-29 10:18:00,
2013-06-29 06:23:00,76.0,74.5,29.83,SSW,194,1.0,5.0,95,0.00,,CLR,0.00,0.00,VWS V14.01,2013-06-29 10:23:00,
2013-06-29 06:28:00,75.9,74.4,29.83,SW,220,0.0,5.0,95,0.00,,CLR,0.00,0.00,VWS V14.01,2013-06-29 10:28:00,
2013-06-29 06:33:00,75.8,74.3,29.83,SSW,210,2.0,4.0,95,0.00,,CLR,0.00,0.00,VWS V14.01,2013-06-29 10:33:00,
2013-06-29 06:38:00,75.8,74.3,29.83,SSW,194,2.0,4.0,95,0.00,,CLR,0.00,5.00,VWS V14.01,2013-06-29 10:38:00,
2013-06-29 06:43:00,75.8,74.3,29.83,South,171,2.0,5.0,95,0.00,,FEW023,0.00,9.00,VWS V14.01,2013-06-29 10:43:00,
2013-06-29 06:48:00,75.8,74.3,29.83,SSE,157,3.0,5.0,95,0.00,,FEW023,0.00,14.00,VWS V14.01,2013-06-29 10:48:00,
2013-06-29 06:53:00,75.7,74.5,29.84,SSE,157,0.0,5.0,96,0.00,,FEW023,0.00,19.00,VWS V14.01,2013-06-29 10:53:00,
2013-06-29 06:58:00,75.7,74.5,29.84,SSE,157,1.0,5.0,96,0.00,,FEW030,0.00,21.00,VWS V14.01,2013-06-29 10:58:00,
2013-06-29 07:03:00,75.8,74.6,29.84,SSE,157,2.0,5.0,96,0.00,,FEW030,0.00,26.00,VWS V14.01,2013-06-29 11:03:00,
2013-06-29 07:08:00,75.9,74.7,29.84,South,190,2.0,5.0,96,0.00,,FEW030,0.00,30.00,VWS V14.01,2013-06-29 11:08:00,
2013-06-29 07:13:00,76.0,74.8,29.84,SSW,205,4.0,5.0,96,0.00,,FEW030,0.00,39.00,VWS V14.01,2013-06-29 11:13:00,
2013-06-29 07:18:00,76.1,74.9,29.84,SSW,209,0.0,5.0,96,0.00,,FEW030,0.00,54.00,VWS V14.01,2013-06-29 11:18:00,
2013-06-29 07:23:00,76.2,74.7,29.85,SSW,211,3.0,6.0,95,0.00,,FEW030,0.00,46.00,VWS V14.01,2013-06-29 11:23:00,
2013-06-29 07:28:00,76.3,74.8,29.85,SW,219,1.0,6.0,95,0.00,,FEW030,0.00,40.00,VWS V14.01,2013-06-29 11:28:00,
2013-06-29 07:33:00,76.4,74.9,29.84,South,188,2.0,4.0,95,0.00,,FEW030,0.00,49.00,VWS V14.01,2013-06-29 11:33:00,
2013-06-29 07:38:00,76.5,75.0,29.85,South,189,2.0,6.0,95,0.00,,FEW030,0.00,54.00,VWS V14.01,2013-06-29 11:38:00,
2013-06-29 07:43:00,76.5,75.0,29.85,South,184,5.0,7.0,95,0.00,,FEW030,0.00,72.00,VWS V14.01,2013-06-29 11:43:00,
2013-06-29 07:48:00,76.6,75.1,29.85,SSW,209,3.0,7.0,95,0.00,,FEW030,0.00,84.00,VWS V14.01,2013-06-29 11:48:00,
2013-06-29 07:53:00,76.7,75.2,29.85,SSE,168,2.0,7.0,95,0.00,,FEW030,0.00,79.00,VWS V14.01,2013-06-29 11:53:00,
2013-06-29 07:58:00,76.9,75.4,29.85,SSW,203,3.0,7.0,95,0.00,,,0.00,127.00,VWS V14.01,2013-06-29 11:58:00,
2013-06-29 08:03:00,77.1,75.6,29.85,South,174,5.0,5.0,95,0.00,,,0.00,142.00,VWS V14.01,2013-06-29 12:03:00,
2013-06-29 08:08:00,77.2,75.3,29.85,SSE,159,4.0,6.0,94,0.00,,,0.00,156.00,VWS V14.01,2013-06-29 12:08:00,
2013-06-29 08:13:00,77.5,75.6,29.84,SE,146,3.0,6.0,94,0.00,,,0.00,174.00,VWS V14.01,2013-06-29 12:13:00,
2013-06-29 08:18:00,77.8,75.9,29.84,South,187,1.0,6.0,94,0.00,,,0.00,186.00,VWS V14.01,2013-06-29 12:18:00,
2013-06-29 08:23:00,78.1,76.2,29.84,South,188,3.0,6.0,94,0.00,,,0.00,190.00,VWS V14.01,2013-06-29 12:23:00,
2013-06-29 08:28:00,78.3,76.1,29.84,SSE,151,5.0,7.0,93,0.00,,,0.00,195.00,VWS V14.01,2013-06-29 12:28:00,
2013-06-29 08:34:00,78.4,76.2,29.84,SSW,202,3.0,5.0,93,0.00,,,0.00,229.00,VWS V14.01,2013-06-29 12:34:00,
2013-06-29 08:39:00,78.8,76.3,29.84,SSE,163,7.0,8.0,92,0.00,,,0.00,241.00,VWS V14.01,2013-06-29 12:39:00,
2013-06-29 08:44:00,79.1,76.6,29.84,South,169,6.0,8.0,92,0.00,,,0.00,229.00,VWS V14.01,2013-06-29 12:44:00,
2013-06-29 08:49:00,79.2,76.3,29.84,South,176,3.0,12.0,91,0.00,,,0.00,274.00,VWS V14.01,2013-06-29 12:49:00,
2013-06-29 08:54:00,79.7,76.8,29.85,South,173,5.0,12.0,91,0.00,,,0.00,294.00,VWS V14.01,2013-06-29 12:54:00,
2013-06-29 08:59:00,80.0,76.8,29.85,South,187,7.0,12.0,90,0.00,,,0.00,325.00,VWS V14.01,2013-06-29 12:59:00,
2013-06-29 09:04:00,80.0,76.5,29.85,SSW,205,3.0,8.0,89,0.00,,OVC065,0.00,318.00,VWS V14.01,2013-06-29 13:04:00,
2013-06-29 09:09:00,80.0,76.5,29.84,SSW,195,7.0,8.0,89,0.00,,OVC065,0.00,332.00,VWS V14.01,2013-06-29 13:09:00,
2013-06-29 09:14:00,80.3,76.8,29.84,SSE,165,3.0,8.0,89,0.00,,OVC065,0.00,352.00,VWS V14.01,2013-06-29 13:14:00,
2013-06-29 09:19:00,80.9,77.4,29.84,SSW,207,4.0,8.0,89,0.00,,OVC065,0.00,434.00,VWS V14.01,2013-06-29 13:19:00,
2013-06-29 09:24:00,81.2,77.3,29.84,South,186,8.0,8.0,88,0.00,,OVC065,0.00,422.00,VWS V14.01,2013-06-29 13:24:00,
2013-06-29 09:29:00,81.5,77.6,29.84,SSE,163,4.0,8.0,88,0.00,,OVC065,0.00,454.00,VWS V14.01,2013-06-29 13:29:00,
2013-06-29 09:34:00,81.0,77.1,29.84,South,190,5.0,7.0,88,0.00,,OVC065,0.00,162.00,VWS V14.01,2013-06-29 13:34:00,
2013-06-29 09:39:00,80.9,77.0,29.84,SSW,192,6.0,7.0,88,0.00,,OVC065,0.00,137.00,VWS V14.01,2013-06-29 13:39:00,
2013-06-29 09:44:00,80.2,76.7,29.85,SSW,204,11.0,12.0,89,0.01,,OVC065,0.01,105.00,VWS V14.01,2013-06-29 13:44:00,
2013-06-29 09:49:00,78.4,73.5,29.86,South,171,11.0,15.0,85,0.01,,OVC065,0.01,120.00,VWS V14.01,2013-06-29 13:49:00,
2013-06-29 09:54:00,76.8,72.6,29.86,SSW,208,3.0,15.0,87,0.01,,OVC065,0.01,120.00,VWS V14.01,2013-06-29 13:54:00,
2013-06-29 09:59:00,76.0,72.2,29.86,SSW,192,3.0,15.0,88,0.02,,OVC017,0.02,127.00,VWS V14.01,2013-06-29 13:59:00,
2013-06-29 10:04:00,75.7,72.6,29.85,SSW,204,4.0,11.0,90,0.03,,OVC017,0.03,134.00,VWS V14.01,2013-06-29 14:04:00,
2013-06-29 10:09:00,75.3,72.5,29.86,SSW,213,7.0,11.0,91,0.03,,OVC017,0.03,141.00,VWS V14.01,2013-06-29 14:09:00,
2013-06-29 10:14:00,74.8,72.0,29.86,South,190,5.0,13.0,91,0.03,,OVC017,0.03,151.00,VWS V14.01,2013-06-29 14:14:00,
2013-06-29 10:19:00,74.7,71.9,29.85,SSW,207,6.0,13.0,91,0.04,,OVC017,0.04,179.00,VWS V14.01,2013-06-29 14:19:00,
2013-06-29 10:24:00,74.9,72.4,29.85,SW,222,5.0,13.0,92,0.04,,OVC017,0.04,186.00,VWS V14.01,2013-06-29 14:24:00,
2013-06-29 10:29:00,75.1,72.6,29.85,South,189,5.0,13.0,92,0.04,,OVC017,0.04,190.00,VWS V14.01,2013-06-29 14:29:00,
2013-06-29 10:34:00,75.2,72.7,29.85,South,191,10.0,10.0,92,0.04,,OVC017,0.04,213.00,VWS V14.01,2013-06-29 14:34:00,
2013-06-29 10:39:00,75.2,72.7,29.86,SSE,166,8.0,12.0,92,0.04,,OVC017,0.04,216.00,VWS V14.01,2013-06-29 14:39:00,
2013-06-29 10:44:00,75.0,72.8,29.86,SSW,205,5.0,12.0,93,0.04,,OVC017,0.04,200.00,VWS V14.01,2013-06-29 14:44:00,
2013-06-29 10:49:00,74.8,72.6,29.85,SW,220,7.0,12.0,93,0.04,,OVC017,0.04,199.00,VWS V14.01,2013-06-29 14:49:00,
2013-06-29 10:54:00,74.7,72.6,29.86,SSW,207,5.0,12.0,93,0.04,,OVC017,0.04,195.00,VWS V14.01,2013-06-29 14:54:00,
2013-06-29 10:59:00,75.0,72.8,29.85,SSW,211,3.0,12.0,93,0.04,,BKN029,0.04,192.00,VWS V14.01,2013-06-29 14:59:00,
2013-06-29 11:04:00,74.9,72.7,29.85,WSW,238,2.0,8.0,93,0.02,,BKN029,0.04,206.00,VWS V14.01,2013-06-29 15:04:00,
2013-06-29 11:09:00,75.2,73.0,29.85,SW,225,1.0,8.0,93,0.02,,BKN029,0.04,241.00,VWS V14.01,2013-06-29 15:09:00,
2013-06-29 11:14:00,75.8,73.6,29.85,SW,221,3.0,8.0,93,0.02,,RA,0.04,265.00,VWS V14.01,2013-06-29 15:14:00,
2013-06-29 11:19:00,76.1,73.9,29.85,WSW,248,2.0,8.0,93,0.02,,RA,0.04,285.00,VWS V14.01,2013-06-29 15:19:00,
2013-06-29 11:24:00,76.6,74.4,29.85,SSW,209,4.0,8.0,93,0.02,,RA,0.04,297.00,VWS V14.01,2013-06-29 15:24:00,
2013-06-29 11:29:00,76.7,74.2,29.85,SSW,200,5.0,8.0,92,0.02,,RA,0.04,339.00,VWS V14.01,2013-06-29 15:29:00,
2013-06-29 11:34:00,76.9,74.1,29.85,SSW,204,4.0,9.0,91,0.00,,RA,0.04,392.00,VWS V14.01,2013-06-29 15:34:00,
2013-06-29 11:39:00,77.6,74.8,29.86,WSW,249,6.0,9.0,91,0.00,,RA,0.04,478.00,VWS V14.01,2013-06-29 15:39:00,
2013-06-29 11:44:00,78.4,75.6,29.86,WSW,246,4.0,9.0,91,0.00,,RA,0.04,520.00,VWS V14.01,2013-06-29 15:44:00,
2013-06-29 11:50:00,78.9,75.4,29.86,SW,232,7.0,11.0,89,0.00,,RA,0.04,578.00,VWS V14.01,2013-06-29 15:50:00,
2013-06-29 11:55:00,79.4,75.5,29.86,SW,222,9.0,11.0,88,0.00,,RA,0.04,506.00,VWS V14.01,2013-06-29 15:55:00,
2013-06-29 12:00:00,79.7,75.8,29.86,SW,218,3.0,11.0,88,0.00,,RA,0.04,355.00,VWS V14.01,2013-06-29 16:00:00,
2013-06-29 12:05:00,80.0,76.1,29.87,WSW,244,11.0,12.0,88,0.00,,-RA,0.04,420.00,VWS V14.01,2013-06-29 16:05:00,
2013-06-29 12:10:00,79.2,75.0,29.87,WSW,256,2.0,12.0,87,0.05,,-RA,0.09,123.00,VWS V14.01,2013-06-29 16:10:00,
2013-06-29 12:15:00,77.9,74.4,29.87,WSW,253,4.0,12.0,89,0.08,,-RA,0.12,185.00,VWS V14.01,2013-06-29 16:15:00,
2013-06-29 12:20:00,77.0,73.8,29.86,SW,228,3.0,12.0,90,0.08,,-RA,0.12,218.00,VWS V14.01,2013-06-29 16:20:00,
2013-06-29 12:25:00,76.4,73.6,29.87,South,183,4.0,12.0,91,0.09,,-RA,0.13,214.00,VWS V14.01,2013-06-29 16:25:00,
2013-06-29 12:30:00,76.2,73.7,29.86,South,184,2.0,12.0,92,0.12,,-RA,0.16,243.00,VWS V14.01,2013-06-29 16:30:00,
2013-06-29 12:35:00,76.1,73.9,29.86,South,175,2.0,3.0,93,0.12,,-RA,0.16,264.00,VWS V14.01,2013-06-29 16:35:00,
2013-06-29 12:40:00,75.9,73.7,29.86,South,186,3.0,4.0,93,0.12,,-RA,0.16,281.00,VWS V14.01,2013-06-29 16:40:00,
2013-06-29 12:45:00,76.4,74.6,29.86,South,186,6.0,6.0,94,0.12,,-RA,0.16,278.00,VWS V14.01,2013-06-29 16:45:00,
2013-06-29 12:50:00,76.4,74.2,29.86,South,170,3.0,7.0,93,0.12,,-RA,0.16,251.00,VWS V14.01,2013-06-29 16:50:00,
2013-06-29 12:55:00,76.5,74.3,29.85,SSW,198,6.0,7.0,93,0.12,,-RA,0.16,232.00,VWS V14.01,2013-06-29 16:55:00,
2013-06-29 13:00:00,76.1,73.9,29.85,SSW,197,5.0,8.0,93,0.12,,FEW040,0.16,216.00,VWS V14.01,2013-06-29 17:00:00,
2013-06-29 13:05:00,76.2,74.0,29.85,SSW,200,5.0,9.0,93,0.12,,FEW040,0.16,176.00,VWS V14.01,2013-06-29 17:05:00,
2013-06-29 13:10:00,76.0,73.8,29.85,South,181,3.0,9.0,93,0.13,,FEW040,0.17,149.00,VWS V14.01,2013-06-29 17:10:00,
2013-06-29 13:15:00,75.7,73.5,29.85,South,178,3.0,9.0,93,0.13,,FEW040,0.17,149.00,VWS V14.01,2013-06-29 17:15:00,
2013-06-29 13:20:00,75.5,73.3,29.84,South,189,2.0,9.0,93,0.13,,FEW040,0.17,155.00,VWS V14.01,2013-06-29 17:20:00,
2013-06-29 13:25:00,75.6,73.8,29.83,SSE,153,3.0,9.0,94,0.13,,FEW040,0.17,171.00,VWS V14.01,2013-06-29 17:25:00,
2013-06-29 13:30:00,75.8,73.9,29.84,SSE,154,1.0,9.0,94,0.13,,FEW040,0.17,204.00,VWS V14.01,2013-06-29 17:30:00,
2013-06-29 13:35:00,76.1,74.2,29.84,SSW,203,1.0,3.0,94,0.01,,FEW040,0.17,265.00,VWS V14.01,2013-06-29 17:35:00,
2013-06-29 13:40:00,76.3,74.1,29.84,SW,228,4.0,6.0,93,0.01,,FEW040,0.17,371.00,VWS V14.01,2013-06-29 17:40:00,
2013-06-29 13:45:00,76.8,74.6,29.83,SSE,159,1.0,6.0,93,0.01,,FEW040,0.17,475.00,VWS V14.01,2013-06-29 17:45:00,
2013-06-29 13:50:00,77.4,74.9,29.83,South,171,1.0,6.0,92,0.01,,FEW040,0.17,570.00,VWS V14.01,2013-06-29 17:50:00,
2013-06-29 13:55:00,78.2,75.4,29.83,SSW,207,2.0,6.0,91,0.01,,FEW040,0.17,548.00,VWS V14.01,2013-06-29 17:55:00,
2013-06-29 14:00:00,78.8,75.9,29.83,South,179,4.0,7.0,91,0.01,,FEW040,0.17,554.00,VWS V14.01,2013-06-29 18:00:00,
2013-06-29 14:05:00,79.3,76.1,29.83,SSW,192,6.0,6.0,90,0.01,,FEW040,0.17,944.00,VWS V14.01,2013-06-29 18:05:00,
2013-06-29 14:10:00,80.2,77.0,29.83,SSW,204,1.0,8.0,90,0.02,,FEW040,0.18,1067.00,VWS V14.01,2013-06-29 18:10:00,
2013-06-29 14:15:00,81.0,76.8,29.83,SSW,211,1.0,8.0,87,0.02,,FEW040,0.18,991.00,VWS V14.01,2013-06-29 18:15:00,
2013-06-29 14:20:00,81.3,77.1,29.82,SSW,207,6.0,8.0,87,0.02,,FEW040,0.18,833.00,VWS V14.01,2013-06-29 18:20:00,
2013-06-29 14:25:00,82.0,77.8,29.82,SSE,147,6.0,9.0,87,0.02,,FEW040,0.18,796.00,VWS V14.01,2013-06-29 18:25:00,
2013-06-29 14:30:00,82.8,77.8,29.82,SSE,161,5.0,10.0,85,0.02,,FEW040,0.18,838.00,VWS V14.01,2013-06-29 18:30:00,
2013-06-29 14:35:00,82.9,76.8,29.81,SSW,196,7.0,10.0,82,0.01,,FEW040,0.18,677.00,VWS V14.01,2013-06-29 18:35:00,
2013-06-29 14:40:00,82.5,76.4,29.81,South,172,9.0,10.0,82,0.01,,FEW040,0.18,587.00,VWS V14.01,2013-06-29 18:40:00,
2013-06-29 14:45:00,82.5,76.4,29.81,SSW,199,5.0,10.0,82,0.01,,FEW040,0.18,378.00,VWS V14.01,2013-06-29 18:45:00,
2013-06-29 14:50:00,82.0,76.0,29.81,SSW,197,2.0,10.0,82,0.01,,FEW040,0.18,348.00,VWS V14.01,2013-06-29 18:50:00,
2013-06-29 14:55:00,82.7,77.0,29.81,SW,223,7.0,10.0,83,0.01,,FEW040,0.18,930.00,VWS V14.01,2013-06-29 18:55:00,
2013-06-29 15:00:00,83.7,77.2,29.81,SW,215,8.0,13.0,81,0.01,,SCT040,0.18,951.00,VWS V14.01,2013-06-29 19:00:00,
2013-06-29 15:05:00,83.8,77.0,29.81,SW,231,6.0,17.0,80,0.01,,SCT040,0.18,828.00,VWS V14.01,2013-06-29 19:05:00,
2013-06-29 15:10:00,84.3,77.8,29.81,SW,221,6.0,17.0,81,0.01,,SCT040,0.18,763.00,VWS V14.01,2013-06-29 19:10:00,
2013-06-29 15:15:00,84.5,77.7,29.80,West,264,3.0,17.0,80,0.01,,SCT040,0.18,729.00,VWS V14.01,2013-06-29 19:15:00,
2013-06-29 15:20:00,84.5,78.0,29.80,SW,236,6.0,17.0,81,0.01,,SCT040,0.18,1014.00,VWS V14.01,2013-06-29 19:20:00,
2013-06-29 15:25:00,85.0,77.0,29.80,West,265,5.0,17.0,77,0.01,,SCT040,0.18,1014.00,VWS V14.01,2013-06-29 19:25:00,
2013-06-29 15:30:00,85.3,77.7,29.80,SW,219,3.0,17.0,78,0.01,,SCT040,0.18,666.00,VWS V14.01,2013-06-29 19:30:00,
2013-06-29 15:35:00,85.5,77.5,29.79,SW,217,5.0,9.0,77,0.00,,SCT040,0.18,995.00,VWS V14.01,2013-06-29 19:35:00,
2013-06-29 15:40:00,85.3,76.9,29.79,SW,221,7.0,11.0,76,0.00,,SCT040,0.18,371.00,VWS V14.01,2013-06-29 19:40:00,
2013-06-29 15:45:00,85.7,77.3,29.80,SSW,213,6.0,13.0,76,0.00,,SCT040,0.18,415.00,VWS V14.01,2013-06-29 19:45:00,
2013-06-29 15:50:00,84.8,76.4,29.79,West,265,5.0,13.0,76,0.00,,SCT040,0.18,311.00,VWS V14.01,2013-06-29 19:50:00,
2013-06-29 15:55:00,85.5,76.7,29.79,SSW,206,7.0,13.0,75,0.00,,SCT040,0.18,341.00,VWS V14.01,2013-06-29 19:55:00,
2013-06-29 16:00:00,85.0,76.6,29.79,West,268,6.0,13.0,76,0.00,,SCT030,0.18,214.00,VWS V14.01,2013-06-29 20:00:00,
2013-06-29 16:05:00,84.3,76.3,29.79,SW,229,7.0,7.0,77,0.00,,SCT030,0.18,120.00,VWS V14.01,2013-06-29 20:05:00,
2013-06-29 16:10:00,83.7,75.7,29.79,WSW,248,0.0,9.0,77,0.00,,SCT030,0.18,142.00,VWS V14.01,2013-06-29 20:10:00,
2013-06-29 16:15:00,83.7,76.1,29.79,West,267,5.0,9.0,78,0.00,,SCT030,0.18,271.00,VWS V14.01,2013-06-29 20:15:00,
2013-06-29 16:20:00,84.3,76.3,29.79,SW,236,4.0,9.0,77,0.00,,SCT030,0.18,213.00,VWS V14.01,2013-06-29 20:20:00,
2013-06-29 16:25:00,84.8,77.2,29.79,SW,218,5.0,11.0,78,0.00,,SCT030,0.18,768.00,VWS V14.01,2013-06-29 20:25:00,
2013-06-29 16:30:00,84.8,77.2,29.79,West,260,5.0,11.0,78,0.00,,SCT030,0.18,788.00,VWS V14.01,2013-06-29 20:30:00,
2013-06-29 16:35:00,85.3,76.9,29.78,WSW,238,8.0,9.0,76,0.00,,SCT030,0.18,802.00,VWS V14.01,2013-06-29 20:35:00,
2013-06-29 16:40:00,85.6,76.4,29.78,SW,224,6.0,15.0,74,0.00,,SCT030,0.18,373.00,VWS V14.01,2013-06-29 20:40:00,
2013-06-29 16:45:00,85.0,76.2,29.78,SW,216,2.0,15.0,75,0.00,,SCT030,0.18,320.00,VWS V14.01,2013-06-29 20:45:00,
2013-06-29 16:50:00,85.5,76.7,29.79,SW,217,10.0,15.0,75,0.00,,SCT030,0.18,274.00,VWS V14.01,2013-06-29 20:50:00,
2013-06-29 16:55:00,84.7,75.9,29.78,SSW,211,12.0,16.0,75,0.00,,SCT030,0.18,250.00,VWS V14.01,2013-06-29 20:55:00,
2013-06-29 17:00:00,84.8,76.4,29.78,SW,227,9.0,16.0,76,0.00,,BKN035,0.18,819.00,VWS V14.01,2013-06-29 21:00:00,
2013-06-29 17:05:00,85.2,76.0,29.78,SSW,194,11.0,16.0,74,0.00,,BKN035,0.18,800.00,VWS V14.01,2013-06-29 21:05:00,
2013-06-29 17:10:00,85.6,76.0,29.78,SW,223,9.0,16.0,73,0.00,,BKN035,0.18,731.00,VWS V14.01,2013-06-29 21:10:00,
2013-06-29 17:15:00,85.2,75.6,29.78,SW,234,3.0,16.0,73,0.00,,BKN035,0.18,374.00,VWS V14.01,2013-06-29 21:15:00,
2013-06-29 17:20:00,85.2,74.7,29.79,SW,221,7.0,16.0,71,0.00,,BKN035,0.18,733.00,VWS V14.01,2013-06-29 21:20:00,
2013-06-29 17:25:00,85.6,75.5,29.78,South,185,4.0,16.0,72,0.00,,BKN035,0.18,647.00,VWS V14.01,2013-06-29 21:25:00,
2013-06-29 17:30:00,85.4,74.5,29.78,SW,219,6.0,16.0,70,0.00,,BKN035,0.18,320.00,VWS V14.01,2013-06-29 21:30:00,
2013-06-29 17:35:00,84.4,74.4,29.78,SSW,196,9.0,13.0,72,0.00,,BKN035,0.18,251.00,VWS V14.01,2013-06-29 21:35:00,
2013-06-29 17:40:00,83.7,74.5,29.78,SW,222,8.0,13.0,74,0.00,,BKN035,0.18,381.00,VWS V14.01,2013-06-29 21:40:00,
2013-06-29 17:45:00,83.5,74.3,29.78,SSW,212,5.0,13.0,74,0.00,,BKN035,0.18,359.00,VWS V14.01,2013-06-29 21:45:00,
2013-06-29 17:50:00,83.6,74.8,29.78,SSW,192,5.0,13.0,75,0.00,,BKN035,0.18,397.00,VWS V14.01,2013-06-29 21:50:00,
2013-06-29 17:55:00,83.6,75.2,29.78,South,185,8.0,13.0,76,0.00,,BKN035,0.18,373.00,VWS V14.01,2013-06-29 21:55:00,
2013-06-29 18:00:00,83.2,74.8,29.79,SSW,201,8.0,13.0,76,0.00,,SCT025,0.18,306.00,VWS V14.01,2013-06-29 22:00:00,
2013-06-29 18:05:00,83.2,75.2,29.79,South,191,7.0,10.0,77,0.00,,SCT025,0.18,330.00,VWS V14.01,2013-06-29 22:05:00,
2013-06-29 18:10:00,83.1,75.5,29.79,SSW,213,7.0,11.0,78,0.00,,SCT025,0.18,341.00,VWS V14.01,2013-06-29 22:10:00,
2013-06-29 18:15:00,83.3,75.3,29.79,SSW,209,5.0,11.0,77,0.00,,SCT025,0.18,318.00,VWS V14.01,2013-06-29 22:15:00,
2013-06-29 18:20:00,83.2,75.2,29.79,SW,234,5.0,11.0,77,0.00,,SCT025,0.18,311.00,VWS V14.01,2013-06-29 22:20:00,
2013-06-29 18:25:00,82.9,74.9,29.79,SW,220,4.0,11.0,77,0.00,,SCT025,0.18,323.00,VWS V14.01,2013-06-29 22:25:00,
2013-06-29 18:30:00,82.6,74.7,29.78,South,181,7.0,11.0,77,0.00,,SCT025,0.18,158.00,VWS V14.01,2013-06-29 22:30:00,
2013-06-29 18:35:00,82.5,74.9,29.78,SW,223,1.0,7.0,78,0.00,,SCT025,0.18,316.00,VWS V14.01,2013-06-29 22:35:00,
2013-06-29 18:40:00,82.9,74.6,29.78,SSW,211,3.0,7.0,76,0.00,,SCT025,0.18,287.00,VWS V14.01,2013-06-29 22:40:00,
2013-06-29 18:45:00,82.9,74.9,29.78,SW,223,2.0,7.0,77,0.00,,SCT025,0.18,265.00,VWS V14.01,2013-06-29 22:45:00,
2013-06-29 18:50:00,83.0,75.1,29.78,SSW,194,4.0,7.0,77,0.00,,SCT025,0.18,274.00,VWS V14.01,2013-06-29 22:50:00,
2013-06-29 18:55:00,82.9,74.2,29.78,SW,230,5.0,8.0,75,0.00,,SCT025,0.18,125.00,VWS V14.01,2013-06-29 22:55:00,
2013-06-29 19:00:00,82.7,74.4,29.78,SW,222,5.0,9.0,76,0.00,,SCT030,0.18,237.00,VWS V14.01,2013-06-29 23:00:00,
2013-06-29 19:06:00,82.8,74.9,29.78,SW,226,5.0,7.0,77,0.00,,SCT030,0.18,171.00,VWS V14.01,2013-06-29 23:06:00,
2013-06-29 19:11:00,82.9,74.6,29.79,SSW,209,3.0,10.0,76,0.00,,SCT030,0.18,174.00,VWS V14.01,2013-06-29 23:11:00,
2013-06-29 19:16:00,83.0,74.7,29.79,SSE,161,7.0,10.0,76,0.00,,SCT030,0.18,234.00,VWS V14.01,2013-06-29 23:16:00,
2013-06-29 19:21:00,83.3,74.9,29.79,South,170,4.0,10.0,76,0.00,,SCT030,0.18,183.00,VWS V14.01,2013-06-29 23:21:00,
2013-06-29 19:26:00,83.0,74.7,29.79,SSW,194,7.0,10.0,76,0.00,,SCT030,0.18,132.00,VWS V14.01,2013-06-29 23:26:00,
2013-06-29 19:31:00,82.9,74.9,29.79,SSE,163,5.0,10.0,77,0.00,,SCT030,0.18,91.00,VWS V14.01,2013-06-29 23:31:00,
2013-06-29 19:36:00,82.7,74.8,29.79,South,187,3.0,8.0,77,0.00,,SCT030,0.18,72.00,VWS V14.01,2013-06-29 23:36:00,
2013-06-29 19:41:00,82.4,74.9,29.79,South,171,5.0,8.0,78,0.00,,SCT030,0.18,63.00,VWS V14.01,2013-06-29 23:41:00,
2013-06-29 19:46:00,82.3,75.1,29.79,South,169,3.0,9.0,79,0.00,,SCT030,0.18,54.00,VWS V14.01,2013-06-29 23:46:00,
2013-06-29 19:51:00,82.3,75.1,29.79,SSE,164,4.0,9.0,79,0.00,,SCT030,0.18,49.00,VWS V14.01,2013-06-29 23:51:00,
2013-06-29 19:56:00,82.2,75.4,29.80,SSE,157,5.0,9.0,80,0.00,,SCT030,0.18,40.00,VWS V14.01,2013-06-29 23:56:00,
2013-06-29 20:01:00,82.0,75.6,29.80,South,185,5.0,5.0,81,0.00,,FEW028,0.18,32.00,VWS V14.01,2013-06-30 00:01:00,
2013-06-29 20:06:00,81.8,75.8,29.80,South,180,8.0,11.0,82,0.00,,FEW028,0.18,26.00,VWS V14.01,2013-06-30 00:06:00,
2013-06-29 20:11:00,81.5,75.8,29.80,SSW,206,9.0,11.0,83,0.00,,FEW028,0.18,21.00,VWS V14.01,2013-06-30 00:11:00,
2013-06-29 20:16:00,81.2,75.2,29.80,SSE,168,3.0,11.0,82,0.00,,FEW028,0.18,14.00,VWS V14.01,2013-06-30 00:16:00,
2013-06-29 20:21:00,81.0,75.3,29.80,SSW,209,7.0,11.0,83,0.00,,SCT036,0.18,9.00,VWS V14.01,2013-06-30 00:21:00,
2013-06-29 20:26:00,80.9,75.3,29.80,South,178,6.0,11.0,83,0.00,,SCT036,0.18,5.00,VWS V14.01,2013-06-30 00:26:00,
2013-06-29 20:31:00,80.7,75.4,29.80,SSE,161,3.0,4.0,84,0.00,,SCT036,0.18,0.00,VWS V14.01,2013-06-30 00:31:00,
2013-06-29 20:36:00,80.5,75.2,29.80,South,182,2.0,8.0,84,0.00,,SCT036,0.18,0.00,VWS V14.01,2013-06-30 00:36:00,
2013-06-29 20:41:00,80.3,75.0,29.81,SSE,164,6.0,8.0,84,0.00,,BKN036,0.18,0.00,VWS V14.01,2013-06-30 00:41:00,
2013-06-29 20:46:00,80.1,75.2,29.81,SSE,167,4.0,8.0,85,0.00,,BKN036,0.18,0.00,VWS V14.01,2013-06-30 00:46:00,
2013-06-29 20:51:00,80.0,75.1,29.81,South,181,3.0,8.0,85,0.00,,BKN036,0.18,0.00,VWS V14.01,2013-06-30 00:51:00,
2013-06-29 20:56:00,79.9,75.3,29.81,SSE,159,5.0,8.0,86,0.00,,BKN036,0.18,0.00,VWS V14.01,2013-06-30 00:56:00,
2013-06-29 21:01:00,79.6,75.1,29.81,South,179,5.0,6.0,86,0.00,,SCT026,0.18,0.00,VWS V14.01,2013-06-30 01:01:00,
2013-06-29 21:06:00,79.3,75.1,29.81,SE,141,8.0,8.0,87,0.00,,SCT026,0.18,0.00,VWS V14.01,2013-06-30 01:06:00,
2013-06-29 21:11:00,79.0,74.8,29.81,South,174,7.0,8.0,87,0.00,,SCT026,0.18,0.00,VWS V14.01,2013-06-30 01:11:00,
2013-06-29 21:16:00,78.8,74.9,29.81,South,191,8.0,11.0,88,0.00,,SCT026,0.18,0.00,VWS V14.01,2013-06-30 01:16:00,
2013-06-29 21:21:00,78.7,74.8,29.81,SSW,198,4.0,11.0,88,0.00,,CLR,0.18,0.00,VWS V14.01,2013-06-30 01:21:00,
2013-06-29 21:26:00,78.6,74.8,29.81,SSE,165,6.0,11.0,88,0.00,,CLR,0.18,0.00,VWS V14.01,2013-06-30 01:26:00,
2013-06-29 21:31:00,78.4,74.9,29.81,SSE,155,6.0,6.0,89,0.00,,CLR,0.18,0.00,VWS V14.01,2013-06-30 01:31:00,
2013-06-29 21:36:00,78.2,74.7,29.81,SE,142,5.0,10.0,89,0.00,,CLR,0.18,0.00,VWS V14.01,2013-06-30 01:36:00,
2013-06-29 21:41:00,78.0,74.5,29.81,SSE,163,9.0,11.0,89,0.00,,CLR,0.18,0.00,VWS V14.01,2013-06-30 01:41:00,
2013-06-29 21:46:00,77.8,74.6,29.81,SSE,160,4.0,11.0,90,0.00,,CLR,0.18,0.00,VWS V14.01,2013-06-30 01:46:00,
2013-06-29 21:51:00,77.7,74.5,29.81,SSE,162,9.0,11.0,90,0.00,,CLR,0.18,0.00,VWS V14.01,2013-06-30 01:51:00,
2013-06-29 21:56:00,77.5,74.3,29.82,South,170,6.0,12.0,90,0.00,,CLR,0.18,0.00,VWS V14.01,2013-06-30 01:56:00,
2013-06-29 22:01:00,77.5,74.7,29.82,SE,146,5.0,7.0,91,0.00,,CLR,0.18,0.00,VWS V14.01,2013-06-30 02:01:00,
2013-06-29 22:06:00,77.4,74.6,29.82,SSE,155,2.0,9.0,91,0.00,,CLR,0.18,0.00,VWS V14.01,2013-06-30 02:06:00,
2013-06-29 22:11:00,77.3,74.5,29.82,South,169,5.0,9.0,91,0.00,,CLR,0.18,0.00,VWS V14.01,2013-06-30 02:11:00,
2013-06-29 22:16:00,77.3,74.5,29.83,South,169,4.0,10.0,91,0.00,,CLR,0.18,0.00,VWS V14.01,2013-06-30 02:16:00,
2013-06-29 22:21:00,77.1,74.3,29.83,SSE,153,6.0,10.0,91,0.00,,CLR,0.18,0.00,VWS V14.01,2013-06-30 02:21:00,
2013-06-29 22:26:00,77.0,74.5,29.83,South,170,3.0,10.0,92,0.00,,CLR,0.18,0.00,VWS V14.01,2013-06-30 02:26:00,
2013-06-29 22:31:00,77.0,74.5,29.83,SSW,202,5.0,5.0,92,0.00,,CLR,0.18,0.00,VWS V14.01,2013-06-30 02:31:00,
2013-06-29 22:36:00,77.0,74.5,29.84,South,184,3.0,7.0,92,0.00,,CLR,0.18,0.00,VWS V14.01,2013-06-30 02:36:00,
2013-06-29 22:41:00,77.0,74.5,29.84,South,182,3.0,7.0,92,0.00,,CLR,0.18,0.00,VWS V14.01,2013-06-30 02:41:00,
2013-06-29 22:46:00,76.9,74.4,29.84,South,191,4.0,8.0,92,0.00,,CLR,0.18,0.00,VWS V14.01,2013-06-30 02:46:00,
2013-06-29 22:51:00,76.9,74.4,29.84,SSE,159,5.0,8.0,92,0.00,,CLR,0.18,0.00,VWS V14.01,2013-06-30 02:51:00,
2013-06-29 22:56:00,76.9,74.4,29.84,South,184,8.0,8.0,92,0.00,,CLR,0.18,0.00,VWS V14.01,2013-06-30 02:56:00,
2013-06-29 23:01:00,76.9,74.4,29.84,SSE,158,8.0,8.0,92,0.00,,CLR,0.18,0.00,VWS V14.01,2013-06-30 03:01:00,
2013-06-29 23:06:00,76.8,74.3,29.84,South,186,3.0,10.0,92,0.00,,CLR,0.18,0.00,VWS V14.01,2013-06-30 03:06:00,
2013-06-29 23:11:00,76.8,74.6,29.84,SSE,157,3.0,10.0,93,0.00,,CLR,0.18,0.00,VWS V14.01,2013-06-30 03:11:00,
2013-06-29 23:16:00,76.7,74.5,29.84,SSW,194,5.0,10.0,93,0.00,,CLR,0.18,0.00,VWS V14.01,2013-06-30 03:16:00,
2013-06-29 23:21:00,76.7,74.5,29.83,South,169,4.0,10.0,93,0.00,,CLR,0.18,0.00,VWS V14.01,2013-06-30 03:21:00,
2013-06-29 23:26:00,76.6,74.4,29.83,South,180,6.0,10.0,93,0.00,,CLR,0.18,0.00,VWS V14.01,2013-06-30 03:26:00,
2013-06-29 23:31:00,76.5,74.3,29.83,SSE,164,5.0,7.0,93,0.00,,CLR,0.18,0.00,VWS V14.01,2013-06-30 03:31:00,
2013-06-29 23:36:00,76.5,74.3,29.83,SSE,157,5.0,8.0,93,0.00,,CLR,0.18,0.00,VWS V14.01,2013-06-30 03:36:00,
2013-06-29 23:41:00,76.4,74.2,29.84,SSE,151,5.0,9.0,93,0.00,,CLR,0.18,0.00,VWS V14.01,2013-06-30 03:41:00,
2013-06-29 23:46:00,76.4,74.6,29.84,SSE,154,5.0,9.0,94,0.00,,CLR,0.18,0.00,VWS V14.01,2013-06-30 03:46:00,
2013-06-29 23:51:00,76.3,74.4,29.84,South,169,6.0,9.0,94,0.00,,CLR,0.18,0.00,VWS V14.01,2013-06-30 03:51:00,
2013-06-29 23:56:00,76.3,74.4,29.83,SE,142,4.0,9.0,94,0.00,,CLR,0.18,0.00,VWS V14.01,2013-06-30 03:56:00,